Location: Elk Forest
(39.5314°N, 75.8738°W)
Time: 14:08:18
(UTC-05:00)

Daily predictions for brighter satellites

Satellite Brightness Start Highest point End
(mag) Time Altitude Azimuth Time Altitude Azimuth Time Altitude Azimuth
Cosmos 1709 Rocket 4.0 18:11:58 10° S 18:18:04 62° E 18:24:08 10° NNE
Okean 1 Rocket 3.7 18:19:15 10° SSE 18:23:20 36° E 18:27:26 10° NNE
Cosmos 1602 3.8 18:22:39 10° S 18:26:26 55° E 18:30:16 10° NNE
Meteor 1-11 Rocket 3.9 18:22:22 10° S 18:27:58 54° E 18:33:44 10° NNE
Cosmos 2151 Rocket 4.0 18:23:29 10° SSW 18:27:58 70° W 18:32:31 10° N
OTV 4 2.9 18:28:21 10° S 18:29:18 11° SSE 18:30:15 10° SE
Cosmos 1833 4.3 18:24:39 10° SSW 18:30:22 85° WNW 18:36:03 10° NNE
Cosmos 1340 2.6 18:28:51 10° N 18:32:39 78° E 18:36:25 10° SSE
ALOS 2.8 18:30:29 10° SE 18:34:43 36° ENE 18:39:00 10° N
Cosmos 1023 Rocket 4.4 18:29:51 10° SSW 18:34:56 83° ESE 18:40:06 10° NNE
Cosmos 1025 Rocket 4.1 18:31:33 10° NNE 18:35:12 25° ENE 18:38:50 10° SE
SL-16 R/B 3.9 18:31:06 10° NW 18:36:18 38° WSW 18:41:29 10° S
Cosmos 2333 Rocket 3.6 18:34:27 10° N 18:38:34 20° NE 18:41:49 13° E
NOAA 12 4.2 18:42:44 10° SSE 18:48:03 85° WSW 18:53:26 10° NNW
FENGYUN 3A 3.8 18:43:54 10° SSE 18:49:07 52° ENE 18:54:23 10° N
Abrixas rocket 2.2 18:47:18 10° SW 18:50:38 76° SE 18:52:57 19° ENE
Cosmos 2322 Rocket 4.5 18:46:27 10° NW 18:51:06 27° WSW 18:55:46 10° SSW
Cosmos 1741 Rocket 3.9 18:47:23 10° S 18:52:34 71° ESE 18:57:46 10° NNE
FREGAT/IRIS 2.6 18:49:32 10° SSE 18:52:37 89° W 18:55:43 10° NNW
Tiangong 2 4.0 18:53:35 10° WSW 18:54:48 12° SW 18:56:00 10° SSW
Cosmos 2285 Rocket 4.4 18:49:05 10° N 18:55:10 41° ENE 19:01:10 10° SE
Genesis I 3.1 18:52:14 10° NNW 18:56:10 73° ENE 19:00:04 10° SE
GEOS 3 Rocket 3.9 18:52:20 10° NE 18:57:22 45° ESE 19:02:26 10° SSW
Okean 1-7 Rocket 3.6 18:53:15 10° N 18:57:44 60° E 19:02:08 10° SSE
GPS 2-04 Rocket1 3.5 18:55:34 10° WSW 18:59:36 43° S 19:01:59 22° ESE
Meteor 1-5 Rocket 4.4 18:57:13 10° S 19:03:01 55° E 19:08:46 10° NNE
FengYun 1-2 T 4.1 18:57:43 10° SSE 19:03:09 68° ENE 19:08:38 10° N
Cosmos 1633 4.1 19:00:32 10° SSW 19:04:01 40° W 19:07:31 10° N
Cosmos 1140 Rocket 4.4 19:01:29 10° SW 19:06:28 51° WNW 19:11:30 10° N
Intercosmos 24 4.4 19:04:06 10° S 19:08:18 62° E 19:14:24 10° NNE
Cosmos 614 Rocket 4.4 19:04:36 10° SSW 19:09:37 63° WNW 19:14:40 10° NNE
Cosmos 2322 4.3 19:05:37 10° NNW 19:11:15 59° WSW 19:16:48 10° S
Cosmos 1570 Rocket 4.0 19:06:04 10° NNW 19:11:19 89° ENE 19:16:34 10° SSE
Hubble Space Telescope 2.9 19:09:30 10° SSW 19:11:43 14° S 19:12:52 13° SSE
SJ-6B 3.6 19:09:31 10° S 19:13:25 53° W 19:17:16 10° NNW
ATLAS CENTAUR R/B 2.2 19:10:24 10° SSW 19:14:33 31° SE 19:14:33 31° SE
ATLAS 2A CENTAUR R/B 4.1 19:17:55 10° SSW 19:19:52 13° SSE 19:22:36 10° SE
Cosmos 405 Rocket 3.1 19:19:36 10° N 19:23:30 42° ENE 19:23:33 42° E
Cosmos 468 Rocket 4.3 19:18:46 10° N 19:23:46 43° ENE 19:25:21 34° ESE
Helios 1A 3.2 19:23:45 40° ESE 19:24:29 45° ENE 19:28:28 10° N
USA 229 DEB 3.8 19:17:36 10° NNW 19:24:44 71° NE 19:29:53 21° SE
USA 229 3.8 19:17:42 10° NNW 19:24:50 70° NE 19:29:56 21° SE
CZ-2D R/B 3.2 19:24:00 34° SE 19:25:27 60° ENE 19:29:14 10° N
H-2A R/B 2.5 19:23:01 10° SSE 19:26:44 88° E 19:30:30 10° N
Spot 2 Rocket 3.4 19:21:42 10° SSE 19:26:46 89° ENE 19:31:52 10° NNW
Okean 2 3.3 19:22:53 10° N 19:27:03 64° E 19:29:23 25° SSE
Cosmos 2237 Rocket 2.9 19:22:23 10° N 19:27:31 33° ENE 19:28:14 32° ENE
Gbstr 26 Del rocket 4.2 19:24:10 10° W 19:27:34 30° NNW 19:29:28 19° NNE
Cosmos 2333 4.2 19:22:26 10° NNW 19:28:12 87° ENE 19:33:43 11° SSE
Cosmos 2297 Rocket 3.6 19:24:14 10° SSE 19:26:19 20° SE 19:26:19 20° SE
COSMOS 2428 2.8 19:23:16 10° NNW 19:28:58 81° WSW 19:34:39 10° SSE
Helios 1B rocket 2.5 19:25:58 10° NNE 19:30:02 52° E 19:34:04 10° S
Meteor 2-4 Rocket 4.2 19:27:50 10° NNW 19:33:14 59° W 19:38:30 10° S
Resurs 01 Rocket 1.9 19:31:12 10° S 19:35:35 67° WSW 19:39:59 10° NNW
Atlas Centaur 2 4.1 19:33:44 10° SSW 19:37:51 16° SSE 19:38:25 16° SSE
Cosmos 1610 Rocket 4.3 19:33:16 10° S 19:39:29 79° E 19:45:39 10° N
Cosmos 2360 Rocket 4.2 19:35:51 10° NW 19:40:35 28° WSW 19:45:20 10° SSW
Cosmos 2219 Rocket 2.0 19:35:50 10° NNW 19:41:26 72° ENE 19:43:37 38° SE
Envisat 3.6 19:44:07 38° NE 19:44:07 38° NE 19:48:01 10° N
Cosmos 1814 Rocket 4.2 19:38:40 10° N 19:43:31 47° ENE 19:43:31 47° ENE
Cosmos 2219 4.1 19:40:12 10° SW 19:45:45 49° WNW 19:51:19 10° NNE
Resurs 1-3 4.2 19:44:11 10° S 19:48:30 57° W 19:52:49 10° NNW
Cosmos 2227 Rocket 2.2 19:43:31 10° S 19:49:00 56° ESE 19:49:27 54° E
NOSS 3-1 (C) 4.2 19:48:28 10° NNW 19:55:53 55° NE 19:57:53 45° E
SL-16 R/B 3.6 19:57:39 10° N 20:00:38 23° NNE 20:00:38 23° NNE
Spot 1 4.5 20:03:52 54° WSW 20:04:13 56° WSW 20:08:18 10° NNW
OTV 4 3.6 20:02:06 10° SW 20:02:21 12° SW 20:02:21 12° SW
Cosmos 1892 Rocket 4.0 20:02:03 10° NNW 20:06:20 59° W 20:06:48 55° SW
Cosmos 2333 Rocket 2.5 20:17:38 10° NNW 20:23:20 65° WSW 20:23:54 61° SW
Cosmos 1980 3.8 20:20:58 10° NNW 20:26:08 71° WNW 20:26:08 71° WNW
Nadezhda 3 Rocket 4.3 20:23:05 10° NNW 20:29:10 62° W 20:31:35 36° SSW
Cosmos 2341 Rocket 4.2 20:29:47 10° SSW 20:36:06 68° W 20:42:30 10° N
Cosmos 2237 Rocket 3.9 21:06:26 10° NW 21:10:07 30° WNW 21:10:07 30° WNW
ATLAS 2AS CENTAUR R/B 4.2 21:26:53 10° NNW 21:31:17 32° N 21:31:17 32° N
